COSMOS 2461 (735)

Last updated on Jan. 17, 2020, 4:32 a.m. UTC

1 36401U 10007B   20015.56387986 -.00000031  00000-0  10000-3 0  9991
2 36401  65.8277  33.0105 0004400  54.1205 119.8874  2.13101988 76855
UTC
Height (km)
Latitude
Longitude
Inclination
Orbital Period
UTC large
Height (km)
Speed (km/s)
/
Latitude / Longitude
Inclination (degrees)
Orbital Period (minutes)
Azimuth
Elevation
Range (km)
Doppler Factor
iOS Compass Heading
iOS Angle

Next 30 passes for location: Hong Kong

Rise time Rise Azimuth (degrees) Set time Set Azimuth (degrees) Duration Max altitude (degrees)

No matching passes for this satellites